Terminal Aerodrome Forecast
Issued by NWS

Home | Current Version | Previous Version | Text Only | Print | Product List | Glossary On
Versions: 1 2 3 4 5 6 7 8 9 10 11 12 13 14 15 16 17 18 19 20 21 22 23 24 25 26
000
FTUS43 KMQT 210406 AAC
TAFCMX
TAF AMD
KCMX 210406Z 2104/2124 10003KT 1 1/2SM -RA BR SCT010 BKN035
     FM210600 12003KT 1/2SM FG VCSH OVC003
     FM210700 12003KT 1/4SM FG VCSH OVC003
     FM211100 12004KT 1/4SM FG OVC008
     FM211500 12006KT 1/2SM FG OVC008=

USA.gov is the U.S. government's official web portal to all federal, state and local government web resources and services.